Location: Newark
(13.8625°N, 100.5144°E)
Time: 19:46:04
(UTC+00:00)

N. Korean satellite - Visible Passes

Search period start: 01 December 2021 00:00
Search period end: 11 December 2021 00:00
Orbit: 447 x 495 km, 97.3° (Epoch: 01 December)

Date Brightness Start Highest point End Pass type
(mag) Time Alt. Az. Time Alt. Az. Time Alt. Az.
01 Dec 7.1 22:06:54 10° NNE 22:10:11 55° E 22:13:30 10° S visible
02 Dec 9.4 21:39:22 10° NE 21:41:43 18° E 21:44:04 10° SE visible
03 Dec 7.2 22:43:16 10° NNW 22:46:15 30° WNW 22:49:15 10° SW visible
04 Dec 6.5 22:14:27 10° NNE 22:17:48 79° E 22:21:11 10° S visible
05 Dec 8.9 21:46:33 10° NE 21:49:19 23° E 21:52:06 10° SSE visible
06 Dec 7.6 22:51:05 10° NNW 22:53:47 22° WNW 22:56:30 10° SW visible
07 Dec 6.3 22:21:57 10° N 22:25:19 74° W 22:28:43 10° SSW visible
08 Dec 8.3 21:53:45 10° NE 21:56:48 31° E 21:59:53 10° SSE visible
09 Dec 9.9 21:27:16 10° E 21:28:14 11° E 21:29:13 10° ESE visible
09 Dec 7.9 22:58:54 10° NNW 23:01:12 17° WNW 23:03:32 10° WSW visible
10 Dec 6.5 22:29:24 10° N 22:32:43 53° WNW 22:36:05 10° SSW visible
